This demonstration page uses our WeatherBlox Daily Observations layout. Learn more.

Left ArrowRight Arrow

41.55636, -103.73856

Hourly Observations for January 31, 2015

Temp ( °F °C ) Dew Point ( °F °C ) Humidity (%) Winds ( mph kmh ) Pressure ( in mb ) Visibility ( mi km ) Precip ( " mm )
12:53 am 00:53 Clear 35 1.7 26 -3.3 70 70 NNW 6 9 30.06 1018 10 16 N/A
1:53 am 01:53 Clear 33 0.6 26 -3.3 75 75 N N/A 30.05 1018 10 16 N/A
2:53 am 02:53 Clear 33 0.6 26 -3.3 75 75 WNW 3 6 30.03 1017 10 16 N/A
3:53 am 03:53 Clear 32 undefined 27 -2.8 82 82 WNW 5 7 30.00 1016 10 16 N/A
4:53 am 04:53 Mostly Cloudy 32 undefined 28 -2.2 85 85 WNW 5 7 30.00 1016 10 16 N/A
5:53 am 05:53 Cloudy 31 -0.6 28 -2.2 89 89 WNW 5 7 29.99 1016 10 16 N/A
6:53 am 06:53 Cloudy 32 undefined 27 -2.8 82 82 NW 6 9 29.99 1016 10 16 N/A
7:53 am 07:53 Cloudy 34 1.1 26 -3.3 73 73 N N/A 30.00 1016 10 16 N/A
8:45 am 08:45 Cloudy with Light Snow 33 0.6 28 -2.2 82 82 S 3 6 30.03 1017 3 4 N/A
8:53 am 08:53 Cloudy with Light Snow 33 0.6 28 -2.2 82 82 N N/A 30.00 1016 3 4 N/A
9:37 am 09:37 Cloudy with Light Snow 33 0.6 29 -1.7 85 85 N N/A 30.03 1017 2 3 N/A
9:45 am 09:45 Cloudy with Light Snow 33 0.6 29 -1.7 85 85 N N/A 30.03 1017 2 3 N/A
9:53 am 09:53 Cloudy with Light Snow 33 0.6 29 -1.7 85 85 NE 3 6 29.98 1015 1 2 0.01 0.25
10:16 am 10:16 Mostly Cloudy with Light Snow 32 undefined 30 -1 93 93 NNE 5 7 30.03 1017 1 1 N/A
10:23 am 10:23 Mostly Cloudy with Light Snow 32 undefined 30 -1.1 92 92 NNE 5 7 30.03 1017 1 2 0.01 0.25
10:33 am 10:33 Mostly Cloudy with Light Snow 32 undefined 30 -1.1 92 92 N N/A 30.03 1017 1 1 0.01 0.25
10:48 am 10:48 Cloudy with Snow 32 undefined 30 -1 93 93 N 3 6 30.03 1017 1 1 N/A
10:53 am 10:53 Cloudy with Snow 32 undefined 30 -1.1 92 92 NNW 3 6 29.97 1015 1 1 0.02 0.51
11:53 am 11:53 Cloudy with Snow 32 undefined 31 -0.6 96 96 VRB 7 11 29.95 1014 0 0 0.05 1.27
12:00 pm 12:00 Mostly Cloudy with Snow 32 undefined 30 -1 93 93 W 8 13 30.00 1016 0 0 N/A
12:11 pm 12:11 Cloudy with Snow 32 undefined 31 -0.6 96 96 WNW 7 11 30.00 1016 1 1 0.03 0.76
12:31 pm 12:31 Cloudy with Snow 32 undefined 31 -0.6 96 96 WNW 3 6 30.00 1016 1 1 0.05 1.27
12:41 pm 12:41 Cloudy with Snow 32 undefined 32 undefined 100 100 WNW 5 7 30.00 1016 1 1 0.06 1.52
12:53 pm 12:53 Cloudy with Light Snow 32 undefined 31 -0.6 96 96 NNW 5 7 29.92 1013 1 1 0.07 1.78
1:22 pm 13:22 Cloudy with Snow 34 1 30 -1 87 87 NNE 3 6 29.94 1014 1 1 N/A
1:48 pm 13:48 Cloudy with Light Snow 34 1 30 -1 87 87 NNE 6 9 29.94 1014 1 2 0.03 0.76
1:53 pm 13:53 Cloudy with Light Snow 33 0.6 31 -0.6 92 92 NNE 6 9 29.91 1013 1 2 0.03 0.76
2:26 pm 14:26 Cloudy with Light Snow 32 undefined 30 -1 93 93 NNE 8 13 29.97 1015 1 1 N/A
2:53 pm 14:53 Cloudy with Light Snow 32 undefined 30 -1.1 92 92 NNE 7 11 29.91 1013 1 2 0.02 0.51
3:17 pm 15:17 Cloudy with Light Snow 32 undefined 30 -1.1 92 92 N 7 11 29.97 1015 3 5 N/A
3:53 pm 15:53 Cloudy 33 0.6 30 -1.1 89 89 ENE 8 13 29.91 1013 7 11 N/A
4:15 pm 16:15 Cloudy 33 0.6 29 -1.7 85 85 NE 8 13 29.94 1014 10 16 N/A
4:23 pm 16:23 Cloudy 32 undefined 29 -1.7 88 88 E 7 11 29.97 1015 10 16 N/A
4:30 pm 16:30 Cloudy 32 undefined 28 -2 87 87 E 7 11 29.97 1015 10 16 N/A
4:53 pm 16:53 Cloudy 32 undefined 28 -2.2 85 85 ENE 5 7 29.92 1013 10 16 N/A
5:53 pm 17:53 Cloudy 31 -0.6 28 -2.2 89 89 NNE 12 19 29.95 1014 10 16 N/A
6:53 pm 18:53 Cloudy 29 -1.7 26 -3.3 89 89 NE 10 17 29.99 1016 10 16 N/A
7:06 pm 19:06 Cloudy 28 -2 27 -3 93 93 NE 10 17 30.06 1018 9 14 N/A
7:53 pm 19:53 Cloudy with Light Snow 27 -2.8 25 -3.9 92 92 NNE 14 22 30.02 1017 4 6 N/A
8:53 pm 20:53 Cloudy 26 -3.3 24 -4.4 92 92 undefined N/A 30.05 1018 10 16 N/A
9:37 pm 21:37 Cloudy 24 -4.4 21 -6.1 88 88 N 12 19 30.18 1022 10 16 N/A
9:53 pm 21:53 Cloudy 24 -4.4 21 -6.1 88 88 N 7 11 30.08 1019 10 16 N/A
10:15 pm 22:15 Cloudy 24 -4.4 21 -6.1 88 88 NNW 9 15 30.18 1022 10 16 N/A
10:53 pm 22:53 Cloudy 24 -4.4 21 -6.1 88 88 NNW 10 17 30.12 1020 10 16 N/A
11:31 pm 23:31 Cloudy 25 -3.9 21 -6.1 85 85 N 7 11 30.21 1023 10 16 N/A
11:53 pm 23:53 Cloudy 25 -3.9 21 -6.1 85 85 N 10 17 30.13 1020 10 16 N/A

Powered by AerisWeather